• Em Portugal
  • Lista de países
  • Para 7 dias
  • Temperatura da água
  • Mapas de satélite
  • Mapa do tempo
  • Widgets de tempo
  • user-avatar
    Iniciar Sessão

    Previsão horária em Razgrad

    Hoje, 26 Setembro, Quarta-feira

    Tempo Temperatura Precipitação Vento Pressão Humidade
    00:00 +8°C° 0 mm 2 m/s 752 mmHg 55%
    01:00 +8°C° 0 mm 2 m/s 752 mmHg 58%
    02:00 +7°C° 0 mm 2 m/s 753 mmHg 63%
    03:00 +7°C° 0 mm 2 m/s 753 mmHg 64%
    04:00 +6°C° 0 mm 2 m/s 753 mmHg 65%
    05:00 +6°C° 0 mm 2 m/s 753 mmHg 66%
    06:00 +7°C° 0 mm 3 m/s 754 mmHg 62%
    07:00 +7°C° 0 mm 4 m/s 754 mmHg 58%
    08:00 +8°C° 0 mm 6 m/s 754 mmHg 53%
    09:00 +10°C° 0 mm 6 m/s 754 mmHg 48%
    10:00 +11°C° 0 mm 6 m/s 754 mmHg 44%
    11:00 +13°C° 0 mm 6 m/s 754 mmHg 39%
    12:00 +14°C° 0 mm 6 m/s 754 mmHg 37%
    13:00 +15°C° 0 mm 6 m/s 754 mmHg 35%
    14:00 +15°C° 0 mm 6 m/s 754 mmHg 32%
    15:00 +15°C° 0 mm 6 m/s 754 mmHg 33%
    16:00 +14°C° 0 mm 6 m/s 753 mmHg 34%
    17:00 +14°C° 0 mm 6 m/s 753 mmHg 35%
    18:00 +12°C° 0 mm 5 m/s 753 mmHg 39%
    19:00 +11°C° 0 mm 4 m/s 754 mmHg 43%
    20:00 +9°C° 0 mm 3 m/s 754 mmHg 47%
    21:00 +8°C° 0 mm 3 m/s 754 mmHg 49%
    22:00 +8°C° 0 mm 2 m/s 754 mmHg 52%
    23:00 +7°C° 0 mm 2 m/s 754 mmHg 55%

    Amanhã, 27 Setembro, Quinta-feira

    Tempo Temperatura Precipitação Vento Pressão Humidade
    00:00 +6°C° 0 mm 2 m/s 754 mmHg 57%
    01:00 +6°C° 0 mm 2 m/s 754 mmHg 59%
    02:00 +6°C° 0 mm 1 m/s 754 mmHg 60%
    03:00 +6°C° 0 mm 1 m/s 754 mmHg 61%
    04:00 +6°C° 0 mm 1 m/s 753 mmHg 63%
    05:00 +5°C° 0 mm 1 m/s 753 mmHg 64%
    06:00 +6°C° 0 mm 1 m/s 753 mmHg 59%
    07:00 +7°C° 0 mm 2 m/s 753 mmHg 54%
    08:00 +8°C° 0 mm 2 m/s 753 mmHg 49%
    09:00 +10°C° 0 mm 2 m/s 753 mmHg 43%
    10:00 +12°C° 0 mm 3 m/s 753 mmHg 38%
    11:00 +14°C° 0 mm 3 m/s 753 mmHg 32%
    12:00 +16°C° 0 mm 3 m/s 752 mmHg 30%
    13:00 +17°C° 0 mm 3 m/s 752 mmHg 27%
    14:00 +18°C° 0 mm 3 m/s 751 mmHg 24%
    15:00 +17°C° 0 mm 2 m/s 751 mmHg 25%
    16:00 +17°C° 0 mm 2 m/s 750 mmHg 26%
    17:00 +17°C° 0 mm 2 m/s 750 mmHg 27%
    18:00 +15°C° 0 mm 1 m/s 750 mmHg 30%
    19:00 +13°C° 0 mm 1 m/s 750 mmHg 33%
    20:00 +10°C° 0 mm 1 m/s 750 mmHg 37%
    21:00 +10°C° 0 mm 1 m/s 750 mmHg 38%
    22:00 +9°C° 0 mm 1 m/s 750 mmHg 39%
    23:00 +9°C° 0 mm 1 m/s 750 mmHg 40%

    Depois de amanhã, 28 Setembro, Sexta-feira

    Tempo Temperatura Precipitação Vento Pressão Humidade
    00:00 +9°C° 0 mm 1 m/s 749 mmHg 41%
    01:00 +8°C° 0 mm 1 m/s 749 mmHg 42%
    02:00 +8°C° 0 mm 1 m/s 749 mmHg 42%
    03:00 +8°C° 0 mm 1 m/s 748 mmHg 43%
    04:00 +7°C° 0 mm 1 m/s 748 mmHg 43%
    05:00 +7°C° 0 mm 1 m/s 748 mmHg 44%
    06:00 +9°C° 0 mm 1 m/s 748 mmHg 41%
    07:00 +10°C° 0 mm 1 m/s 748 mmHg 38%
    08:00 +11°C° 0 mm 0 m/s 747 mmHg 34%
    09:00 +14°C° 0 mm 1 m/s 747 mmHg 31%
    10:00 +16°C° 0 mm 1 m/s 747 mmHg 28%
    11:00 +19°C° 0 mm 2 m/s 747 mmHg 25%
    12:00 +20°C° 0 mm 2 m/s 746 mmHg 24%
    13:00 +21°C° 0 mm 2 m/s 745 mmHg 23%
    14:00 +23°C° 0 mm 2 m/s 745 mmHg 22%
    15:00 +21°C° 0 mm 2 m/s 744 mmHg 25%
    16:00 +21°C° 0 mm 2 m/s 743 mmHg 28%
    17:00 +20°C° 0 mm 2 m/s 743 mmHg 31%
    18:00 +18°C° 0 mm 2 m/s 743 mmHg 38%
    19:00 +16°C° 0 mm 2 m/s 743 mmHg 46%
    20:00 +14°C° 0 mm 2 m/s 743 mmHg 53%
    21:00 +14°C° 0 mm 2 m/s 743 mmHg 59%
    22:00 +13°C° 0 mm 2 m/s 743 mmHg 65%
    23:00 +13°C° 0 mm 1 m/s 742 mmHg 71%

    29 Setembro, Sábado

    Tempo Temperatura Precipitação Vento Pressão Humidade
    00:00 +13°C° 0 mm 1 m/s 742 mmHg 70%
    01:00 +14°C° 0 mm 1 m/s 742 mmHg 69%
    02:00 +14°C° 0 mm 1 m/s 742 mmHg 68%
    03:00 +14°C° 0 mm 1 m/s 741 mmHg 69%
    04:00 +13°C° 0 mm 1 m/s 741 mmHg 70%
    05:00 +13°C° 0 mm 1 m/s 741 mmHg 71%
    06:00 +14°C° 0 mm 1 m/s 741 mmHg 67%
    07:00 +14°C° 0 mm 0 m/s 741 mmHg 63%
    08:00 +15°C° 0 mm 0 m/s 741 mmHg 59%
    09:00 +18°C° 0 mm 1 m/s 741 mmHg 57%
    10:00 +18°C° 0 mm 1 m/s 742 mmHg 55%
    11:00 +19°C° 0 mm 1 m/s 742 mmHg 52%
    12:00 +18°C° 0 mm 1 m/s 742 mmHg 52%
    13:00 +17°C° 0 mm 2 m/s 741 mmHg 51%
    14:00 +17°C° 0 mm 2 m/s 741 mmHg 51%
    15:00 +16°C° 0.2 mm 2 m/s 741 mmHg 55%
    16:00 +15°C° 0.2 mm 2 m/s 741 mmHg 59%
    17:00 +14°C° 0.2 mm 2 m/s 741 mmHg 63%
    18:00 +14°C° 0.7 mm 2 m/s 742 mmHg 68%
    19:00 +13°C° 0.7 mm 2 m/s 742 mmHg 72%
    20:00 +13°C° 0.7 mm 2 m/s 743 mmHg 77%
    21:00 +12°C° 0.7 mm 2 m/s 743 mmHg 80%
    22:00 +11°C° 0.7 mm 3 m/s 743 mmHg 82%
    23:00 +11°C° 0.7 mm 4 m/s 744 mmHg 85%

    30 Setembro, Domingo

    Tempo Temperatura Precipitação Vento Pressão Humidade
    00:00 +11°C° 0.6 mm 4 m/s 744 mmHg 85%
    01:00 +10°C° 0.6 mm 4 m/s 744 mmHg 86%
    02:00 +10°C° 0.6 mm 4 m/s 744 mmHg 87%
    03:00 +10°C° 0.3 mm 4 m/s 744 mmHg 86%
    04:00 +10°C° 0.3 mm 4 m/s 744 mmHg 86%
    05:00 +8°C° 0.3 mm 4 m/s 744 mmHg 85%
    06:00 +8°C° 0.1 mm 5 m/s 745 mmHg 84%
    07:00 +8°C° 0.1 mm 5 m/s 745 mmHg 82%
    08:00 +9°C° 0.1 mm 5 m/s 745 mmHg 81%
    09:00 +9°C° 0 mm 5 m/s 746 mmHg 78%
    10:00 +10°C° 0 mm 5 m/s 746 mmHg 75%
    11:00 +12°C° 0 mm 5 m/s 746 mmHg 72%
    12:00 +13°C° 0 mm 5 m/s 746 mmHg 68%
    13:00 +14°C° 0 mm 5 m/s 745 mmHg 64%
    14:00 +15°C° 0 mm 5 m/s 745 mmHg 61%
    15:00 +15°C° 0.1 mm 5 m/s 745 mmHg 61%
    16:00 +15°C° 0.1 mm 4 m/s 745 mmHg 61%
    17:00 +15°C° 0.1 mm 4 m/s 745 mmHg 61%
    18:00 +15°C° 0.1 mm 4 m/s 745 mmHg 62%
    19:00 +14°C° 0.1 mm 3 m/s 745 mmHg 64%
    20:00 +13°C° 0.1 mm 3 m/s 745 mmHg 66%
    21:00 +13°C° 0.1 mm 3 m/s 745 mmHg 67%
    22:00 +12°C° 0.1 mm 3 m/s 745 mmHg 67%
    23:00 +12°C° 0.1 mm 3 m/s 745 mmHg 68%

    1 Outubro, Segunda-feira

    Tempo Temperatura Precipitação Vento Pressão Humidade
    00:00 +12°C° 0.3 mm 3 m/s 745 mmHg 69%
    01:00 +12°C° 0.3 mm 2 m/s 744 mmHg 70%
    02:00 +12°C° 0.3 mm 2 m/s 744 mmHg 71%
    03:00 +10°C° 0.4 mm 2 m/s 744 mmHg 72%
    04:00 +10°C° 0.4 mm 2 m/s 744 mmHg 73%
    05:00 +10°C° 0.4 mm 2 m/s 743 mmHg 74%
    06:00 +10°C° 0.3 mm 2 m/s 743 mmHg 74%
    07:00 +10°C° 0.3 mm 2 m/s 743 mmHg 74%
    08:00 +10°C° 0.3 mm 2 m/s 743 mmHg 74%
    09:00 +12°C° 0.3 mm 2 m/s 742 mmHg 72%
    10:00 +14°C° 0.3 mm 2 m/s 742 mmHg 70%
    11:00 +14°C° 0.3 mm 3 m/s 742 mmHg 68%
    12:00 +14°C° 0.3 mm 3 m/s 742 mmHg 68%
    13:00 +14°C° 0.3 mm 3 m/s 741 mmHg 68%
    14:00 +16°C° 0.3 mm 3 m/s 741 mmHg 68%
    15:00 +16°C° 0.4 mm 2 m/s 741 mmHg 71%
    16:00 +15°C° 0.4 mm 2 m/s 740 mmHg 73%
    17:00 +15°C° 0.4 mm 1 m/s 740 mmHg 76%
    18:00 +14°C° 0.8 mm 1 m/s 740 mmHg 80%
    19:00 +14°C° 0.8 mm 1 m/s 740 mmHg 83%
    20:00 +13°C° 0.8 mm 1 m/s 740 mmHg 87%
    21:00 +13°C° 0.5 mm 1 m/s 740 mmHg 88%
    22:00 +13°C° 0.5 mm 1 m/s 740 mmHg 89%
    23:00 +12°C° 0.5 mm 1 m/s 740 mmHg 90%
    Mostrar mais